owner,sensor,date,latitude,longitude,vertical_datum,wind_speed,wind_to_direction,wind_speed_of_gust,qcFlag 
DISL,ioos:station:DISL:MHPA:1,2009-06-01T00:00:00Z,30.6671,-87.9365,8.5,4.0,192.5,-9999.0,'1111122,1111122,1111122' 
DISL,ioos:station:DISL:MHPA:1,2009-06-01T00:30:00Z,30.6671,-87.9365,8.5,4.44,202.4,-9999.0,'1111122,1111122,1111122' 
DISL,ioos:station:DISL:MHPA:1,2009-06-01T01:00:00Z,30.6671,-87.9365,8.5,4.35,200.8,-9999.0,'1111122,1111122,1111122' 
DISL,ioos:station:DISL:MHPA:1,2009-06-01T01:30:00Z,30.6671,-87.9365,8.5,3.67,213.1,-9999.0,'1111122,1111122,1111122' 
DISL,ioos:station:DISL:MHPA:1,2009-06-01T02:00:00Z,30.6671,-87.9365,8.5,4.01,221.9,-9999.0,'1111122,1111122,1111122' 
DISL,ioos:station:DISL:MHPA:1,2009-06-01T02:30:00Z,30.6671,-87.9365,8.5,3.32,225.2,-9999.0,'1111122,1111122,1111122' 
DISL,ioos:station:DISL:MHPA:1,2009-06-01T03:00:00Z,30.6671,-87.9365,8.5,3.38,227.1,-9999.0,'1111122,1111122,1111122' 
DISL,ioos:station:DISL:MHPA:1,2009-06-01T03:30:00Z,30.6671,-87.9365,8.5,3.08,247.0,-9999.0,'1111122,1111122,1111122' 
DISL,ioos:station:DISL:MHPA:1,2009-06-01T04:00:00Z,30.6671,-87.9365,8.5,2.67,248.1,-9999.0,'1111122,1111122,1111122' 
DISL,ioos:station:DISL:MHPA:1,2009-06-01T04:30:00Z,30.6671,-87.9365,8.5,2.69,251.5,-9999.0,'1111122,1111122,1111122' 
DISL,ioos:station:DISL:MHPA:1,2009-06-01T05:00:00Z,30.6671,-87.9365,8.5,2.57,261.0,-9999.0,'1111122,1111122,1111122' 
DISL,ioos:station:DISL:MHPA:1,2009-06-01T05:30:00Z,30.6671,-87.9365,8.5,0.39,298.9,-9999.0,'1111122,1111122,1111122' 
DISL,ioos:station:DISL:MHPA:1,2009-06-01T06:00:00Z,30.6671,-87.9365,8.5,1.66,265.6,-9999.0,'1111122,1111122,1111122' 
DISL,ioos:station:DISL:MHPA:1,2009-06-01T06:30:00Z,30.6671,-87.9365,8.5,1.1,286.3,-9999.0,'1111122,1111122,1111122' 
DISL,ioos:station:DISL:MHPA:1,2009-06-01T07:00:00Z,30.6671,-87.9365,8.5,0.13,291.8,-9999.0,'1111122,1111122,1111122' 
DISL,ioos:station:DISL:MHPA:1,2009-06-01T07:30:00Z,30.6671,-87.9365,8.5,0.0,0.0,-9999.0,'1114422,1114422,1111122' 
DISL,ioos:station:DISL:MHPA:1,2009-06-01T08:00:00Z,30.6671,-87.9365,8.5,0.18,289.2,-9999.0,'1111122,1111122,1111122' 
DISL,ioos:station:DISL:MHPA:1,2009-06-01T08:30:00Z,30.6671,-87.9365,8.5,0.23,343.3,-9999.0,'1111122,1111122,1111122' 
DISL,ioos:station:DISL:MHPA:1,2009-06-01T09:00:00Z,30.6671,-87.9365,8.5,0.76,37.16,-9999.0,'1111122,1111122,1111122' 
DISL,ioos:station:DISL:MHPA:1,2009-06-01T09:30:00Z,30.6671,-87.9365,8.5,0.71,44.94,-9999.0,'1111122,1111122,1111122' 
DISL,ioos:station:DISL:MHPA:1,2009-06-01T10:00:00Z,30.6671,-87.9365,8.5,1.46,29.07,-9999.0,'1111122,1111122,1111122' 
DISL,ioos:station:DISL:MHPA:1,2009-06-01T10:30:00Z,30.6671,-87.9365,8.5,0.82,37.3,-9999.0,'1111122,1111122,1111122' 
DISL,ioos:station:DISL:MHPA:1,2009-06-01T11:00:00Z,30.6671,-87.9365,8.5,0.87,26.79,-9999.0,'1111122,1111122,1111122' 
DISL,ioos:station:DISL:MHPA:1,2009-06-01T11:30:00Z,30.6671,-87.9365,8.5,1.17,184.7,-9999.0,'1111122,1111122,1111122' 
DISL,ioos:station:DISL:MHPA:1,2009-06-01T12:00:00Z,30.6671,-87.9365,8.5,0.52,38.74,-9999.0,'1111122,1111122,1111122' 
DISL,ioos:station:DISL:MHPA:1,2009-06-01T12:30:00Z,30.6671,-87.9365,8.5,1.26,355.3,-9999.0,'1111122,1111122,1111122' 
DISL,ioos:station:DISL:MHPA:1,2009-06-01T13:00:00Z,30.6671,-87.9365,8.5,1.53,0.869,-9999.0,'1111122,1111122,1111122' 
DISL,ioos:station:DISL:MHPA:1,2009-06-01T13:30:00Z,30.6671,-87.9365,8.5,1.73,351.3,-9999.0,'1111122,1111122,1111122' 
DISL,ioos:station:DISL:MHPA:1,2009-06-01T14:00:00Z,30.6671,-87.9365,8.5,1.68,358.7,-9999.0,'1111122,1111122,1111122' 
DISL,ioos:station:DISL:MHPA:1,2009-06-01T14:30:00Z,30.6671,-87.9365,8.5,2.11,353.2,-9999.0,'1111122,1111122,1111122' 
DISL,ioos:station:DISL:MHPA:1,2009-06-01T15:00:00Z,30.6671,-87.9365,8.5,1.27,348.5,-9999.0,'1111122,1111122,1111122' 
DISL,ioos:station:DISL:MHPA:1,2009-06-01T15:30:00Z,30.6671,-87.9365,8.5,1.84,325.1,-9999.0,'1111122,1111122,1111122' 
DISL,ioos:station:DISL:MHPA:1,2009-06-01T16:00:00Z,30.6671,-87.9365,8.5,2.33,323.8,-9999.0,'1111122,1111122,1111122' 
DISL,ioos:station:DISL:MHPA:1,2009-06-01T16:30:00Z,30.6671,-87.9365,8.5,2.11,300.3,-9999.0,'1111122,1111122,1111122' 
DISL,ioos:station:DISL:MHPA:1,2009-06-01T17:00:00Z,30.6671,-87.9365,8.5,3.55,247.5,-9999.0,'1111122,1111122,1111122' 
DISL,ioos:station:DISL:MHPA:1,2009-06-01T17:30:00Z,30.6671,-87.9365,8.5,3.86,237.6,-9999.0,'1111122,1111122,1111122' 
DISL,ioos:station:DISL:MHPA:1,2009-06-01T18:00:00Z,30.6671,-87.9365,8.5,2.68,230.8,-9999.0,'1111122,1111122,1111122' 
DISL,ioos:station:DISL:MHPA:1,2009-06-01T18:30:00Z,30.6671,-87.9365,8.5,3.31,245.0,-9999.0,'1111122,1111122,1111122' 
DISL,ioos:station:DISL:MHPA:1,2009-06-01T19:00:00Z,30.6671,-87.9365,8.5,3.54,246.7,-9999.0,'1111122,1111122,1111122' 
DISL,ioos:station:DISL:MHPA:1,2009-06-01T19:30:00Z,30.6671,-87.9365,8.5,3.36,232.4,-9999.0,'1111122,1111122,1111122' 
DISL,ioos:station:DISL:MHPA:1,2009-06-01T20:00:00Z,30.6671,-87.9365,8.5,3.78,215.8,-9999.0,'1111122,1111122,1111122' 
DISL,ioos:station:DISL:MHPA:1,2009-06-01T20:30:00Z,30.6671,-87.9365,8.5,5.02,195.3,-9999.0,'1111122,1111122,1111122' 
DISL,ioos:station:DISL:MHPA:1,2009-06-01T21:00:00Z,30.6671,-87.9365,8.5,5.48,196.2,-9999.0,'1111122,1111122,1111122' 
DISL,ioos:station:DISL:MHPA:1,2009-06-01T21:30:00Z,30.6671,-87.9365,8.5,5.72,192.5,-9999.0,'1111122,1111122,1111122' 
DISL,ioos:station:DISL:MHPA:1,2009-06-01T22:00:00Z,30.6671,-87.9365,8.5,5.21,191.8,-9999.0,'1111122,1111122,1111122' 
DISL,ioos:station:DISL:MHPA:1,2009-06-01T22:30:00Z,30.6671,-87.9365,8.5,5.19,188.4,-9999.0,'1111122,1111122,1111122' 
DISL,ioos:station:DISL:MHPA:1,2009-06-01T23:00:00Z,30.6671,-87.9365,8.5,4.78,185.1,-9999.0,'1111122,1111122,1111122' 
DISL,ioos:station:DISL:MHPA:1,2009-06-01T23:30:00Z,30.6671,-87.9365,8.5,4.99,180.1,-9999.0,'1111122,1111122,1111122' 
DISL,ioos:station:DISL:MHPA:1,2009-06-02T00:00:00Z,30.6671,-87.9365,8.5,4.56,183.5,-9999.0,'1111122,1111122,1111122' 
DISL,ioos:station:DISL:MHPA:1,2009-06-02T00:30:00Z,30.6671,-87.9365,8.5,2.85,182.8,-9999.0,'1111122,1111122,1111122' 
DISL,ioos:station:DISL:MHPA:1,2009-06-02T01:00:00Z,30.6671,-87.9365,8.5,2.58,196.8,-9999.0,'1111122,1111122,1111122' 
DISL,ioos:station:DISL:MHPA:1,2009-06-02T01:30:00Z,30.6671,-87.9365,8.5,2.77,216.2,-9999.0,'1111122,1111122,1111122' 
DISL,ioos:station:DISL:MHPA:1,2009-06-02T02:00:00Z,30.6671,-87.9365,8.5,3.26,241.7,-9999.0,'1111122,1111122,1111122' 
DISL,ioos:station:DISL:MHPA:1,2009-06-02T02:30:00Z,30.6671,-87.9365,8.5,3.28,235.0,-9999.0,'1111122,1111122,1111122' 
DISL,ioos:station:DISL:MHPA:1,2009-06-02T03:00:00Z,30.6671,-87.9365,8.5,2.79,214.0,-9999.0,'1111122,1111122,1111122' 
DISL,ioos:station:DISL:MHPA:1,2009-06-02T03:30:00Z,30.6671,-87.9365,8.5,1.82,222.6,-9999.0,'1111122,1111122,1111122' 
DISL,ioos:station:DISL:MHPA:1,2009-06-02T04:00:00Z,30.6671,-87.9365,8.5,2.45,246.3,-9999.0,'1111122,1111122,1111122' 
DISL,ioos:station:DISL:MHPA:1,2009-06-02T04:30:00Z,30.6671,-87.9365,8.5,1.35,266.8,-9999.0,'1111122,1111122,1111122' 
DISL,ioos:station:DISL:MHPA:1,2009-06-02T05:00:00Z,30.6671,-87.9365,8.5,1.31,239.7,-9999.0,'1111122,1111122,1111122' 
DISL,ioos:station:DISL:MHPA:1,2009-06-02T05:30:00Z,30.6671,-87.9365,8.5,0.16,46.79,-9999.0,'1111122,1111122,1111122' 
DISL,ioos:station:DISL:MHPA:1,2009-06-02T06:00:00Z,30.6671,-87.9365,8.5,0.31,92.6,-9999.0,'1111122,1111122,1111122' 
DISL,ioos:station:DISL:MHPA:1,2009-06-02T06:30:00Z,30.6671,-87.9365,8.5,0.65,64.51,-9999.0,'1111122,1111122,1111122' 
DISL,ioos:station:DISL:MHPA:1,2009-06-02T07:00:00Z,30.6671,-87.9365,8.5,0.35,53.85,-9999.0,'1111122,1111122,1111122' 
DISL,ioos:station:DISL:MHPA:1,2009-06-02T07:30:00Z,30.6671,-87.9365,8.5,0.22,82.5,-9999.0,'1111122,1111122,1111122' 
DISL,ioos:station:DISL:MHPA:1,2009-06-02T08:00:00Z,30.6671,-87.9365,8.5,0.74,20.8,-9999.0,'1111122,1111122,1111122' 
DISL,ioos:station:DISL:MHPA:1,2009-06-02T08:30:00Z,30.6671,-87.9365,8.5,0.44,47.95,-9999.0,'1111122,1111122,1111122' 
DISL,ioos:station:DISL:MHPA:1,2009-06-02T09:00:00Z,30.6671,-87.9365,8.5,0.78,47.91,-9999.0,'1111122,1111122,1111122' 
DISL,ioos:station:DISL:MHPA:1,2009-06-02T09:30:00Z,30.6671,-87.9365,8.5,0.69,25.4,-9999.0,'1111122,1111122,1111122' 
DISL,ioos:station:DISL:MHPA:1,2009-06-02T10:00:00Z,30.6671,-87.9365,8.5,0.99,29.04,-9999.0,'1111122,1111122,1111122' 
DISL,ioos:station:DISL:MHPA:1,2009-06-02T10:30:00Z,30.6671,-87.9365,8.5,1.13,33.04,-9999.0,'1111122,1111122,1111122' 
DISL,ioos:station:DISL:MHPA:1,2009-06-02T11:00:00Z,30.6671,-87.9365,8.5,1.36,40.07,-9999.0,'1111122,1111122,1111122' 
DISL,ioos:station:DISL:MHPA:1,2009-06-02T11:30:00Z,30.6671,-87.9365,8.5,1.1,34.54,-9999.0,'1111122,1111122,1111122' 
DISL,ioos:station:DISL:MHPA:1,2009-06-02T12:00:00Z,30.6671,-87.9365,8.5,1.31,34.83,-9999.0,'1111122,1111122,1111122' 
DISL,ioos:station:DISL:MHPA:1,2009-06-02T12:30:00Z,30.6671,-87.9365,8.5,0.83,19.95,-9999.0,'1111122,1111122,1111122' 
DISL,ioos:station:DISL:MHPA:1,2009-06-02T13:00:00Z,30.6671,-87.9365,8.5,1.66,10.99,-9999.0,'1111122,1111122,1111122' 
DISL,ioos:station:DISL:MHPA:1,2009-06-02T13:30:00Z,30.6671,-87.9365,8.5,1.21,8.16,-9999.0,'1111122,1111122,1111122' 
DISL,ioos:station:DISL:MHPA:1,2009-06-02T14:00:00Z,30.6671,-87.9365,8.5,0.91,1.04,-9999.0,'1111122,1111122,1111122' 
DISL,ioos:station:DISL:MHPA:1,2009-06-02T14:30:00Z,30.6671,-87.9365,8.5,1.01,323.6,-9999.0,'1111122,1111122,1111122' 
DISL,ioos:station:DISL:MHPA:1,2009-06-02T15:00:00Z,30.6671,-87.9365,8.5,1.43,218.7,-9999.0,'1111122,1111122,1111122' 
DISL,ioos:station:DISL:MHPA:1,2009-06-02T15:30:00Z,30.6671,-87.9365,8.5,1.99,231.2,-9999.0,'1111122,1111122,1111122' 
DISL,ioos:station:DISL:MHPA:1,2009-06-02T16:00:00Z,30.6671,-87.9365,8.5,2.25,247.1,-9999.0,'1111122,1111122,1111122' 
DISL,ioos:station:DISL:MHPA:1,2009-06-02T16:30:00Z,30.6671,-87.9365,8.5,3.3,243.3,-9999.0,'1111122,1111122,1111122' 
DISL,ioos:station:DISL:MHPA:1,2009-06-02T17:00:00Z,30.6671,-87.9365,8.5,3.06,256.2,-9999.0,'1111122,1111122,1111122' 
DISL,ioos:station:DISL:MHPA:1,2009-06-02T17:30:00Z,30.6671,-87.9365,8.5,3.86,246.3,-9999.0,'1111122,1111122,1111122' 
DISL,ioos:station:DISL:MHPA:1,2009-06-02T18:00:00Z,30.6671,-87.9365,8.5,4.01,220.8,-9999.0,'1111122,1111122,1111122' 
DISL,ioos:station:DISL:MHPA:1,2009-06-02T18:30:00Z,30.6671,-87.9365,8.5,4.67,199.4,-9999.0,'1111122,1111122,1111122' 
DISL,ioos:station:DISL:MHPA:1,2009-06-02T19:00:00Z,30.6671,-87.9365,8.5,4.7,199.6,-9999.0,'1111122,1111122,1111122' 
DISL,ioos:station:DISL:MHPA:1,2009-06-02T19:30:00Z,30.6671,-87.9365,8.5,4.64,206.9,-9999.0,'1111122,1111122,1111122' 
DISL,ioos:station:DISL:MHPA:1,2009-06-02T20:00:00Z,30.6671,-87.9365,8.5,5.17,205.1,-9999.0,'1111122,1111122,1111122' 
DISL,ioos:station:DISL:MHPA:1,2009-06-02T20:30:00Z,30.6671,-87.9365,8.5,5.56,206.7,-9999.0,'1111122,1111122,1111122' 
DISL,ioos:station:DISL:MHPA:1,2009-06-02T21:00:00Z,30.6671,-87.9365,8.5,5.47,204.3,-9999.0,'1111122,1111122,1111122' 
DISL,ioos:station:DISL:MHPA:1,2009-06-02T21:30:00Z,30.6671,-87.9365,8.5,5.97,197.6,-9999.0,'1111122,1111122,1111122' 
DISL,ioos:station:DISL:MHPA:1,2009-06-02T22:00:00Z,30.6671,-87.9365,8.5,5.66,199.4,-9999.0,'1111122,1111122,1111122' 
DISL,ioos:station:DISL:MHPA:1,2009-06-02T22:30:00Z,30.6671,-87.9365,8.5,4.73,198.6,-9999.0,'1111122,1111122,1111122' 
DISL,ioos:station:DISL:MHPA:1,2009-06-02T23:00:00Z,30.6671,-87.9365,8.5,3.65,203.6,-9999.0,'1111122,1111122,1111122' 
DISL,ioos:station:DISL:MHPA:1,2009-06-02T23:30:00Z,30.6671,-87.9365,8.5,3.09,214.3,-9999.0,'1111122,1111122,1111122' 
DISL,ioos:station:DISL:MHPA:1,2009-06-03T00:00:00Z,30.6671,-87.9365,8.5,3.15,220.6,-9999.0,'1111122,1111122,1111122' 
DISL,ioos:station:DISL:MHPA:1,2009-06-03T00:30:00Z,30.6671,-87.9365,8.5,3.07,242.8,-9999.0,'1111122,1111122,1111122' 
DISL,ioos:station:DISL:MHPA:1,2009-06-03T01:00:00Z,30.6671,-87.9365,8.5,2.34,248.1,-9999.0,'1111122,1111122,1111122' 
DISL,ioos:station:DISL:MHPA:1,2009-06-03T01:30:00Z,30.6671,-87.9365,8.5,1.51,258.5,-9999.0,'1111122,1111122,1111122' 
DISL,ioos:station:DISL:MHPA:1,2009-06-03T02:00:00Z,30.6671,-87.9365,8.5,0.56,92.0,-9999.0,'1111122,1111122,1111122' 
DISL,ioos:station:DISL:MHPA:1,2009-06-03T02:30:00Z,30.6671,-87.9365,8.5,1.95,178.5,-9999.0,'1111122,1111122,1111122' 
DISL,ioos:station:DISL:MHPA:1,2009-06-03T03:00:00Z,30.6671,-87.9365,8.5,1.0,151.4,-9999.0,'1111122,1111122,1111122' 
DISL,ioos:station:DISL:MHPA:1,2009-06-03T03:30:00Z,30.6671,-87.9365,8.5,0.76,114.9,-9999.0,'1111122,1111122,1111122' 
DISL,ioos:station:DISL:MHPA:1,2009-06-03T04:00:00Z,30.6671,-87.9365,8.5,1.33,102.9,-9999.0,'1111122,1111122,1111122' 
DISL,ioos:station:DISL:MHPA:1,2009-06-03T04:30:00Z,30.6671,-87.9365,8.5,1.65,114.9,-9999.0,'1111122,1111122,1111122' 
DISL,ioos:station:DISL:MHPA:1,2009-06-03T05:00:00Z,30.6671,-87.9365,8.5,1.97,137.8,-9999.0,'1111122,1111122,1111122' 
DISL,ioos:station:DISL:MHPA:1,2009-06-03T05:30:00Z,30.6671,-87.9365,8.5,1.72,134.4,-9999.0,'1111122,1111122,1111122' 
DISL,ioos:station:DISL:MHPA:1,2009-06-03T06:00:00Z,30.6671,-87.9365,8.5,1.51,115.5,-9999.0,'1111122,1111122,1111122' 
DISL,ioos:station:DISL:MHPA:1,2009-06-03T06:30:00Z,30.6671,-87.9365,8.5,1.97,112.7,-9999.0,'1111122,1111122,1111122' 
DISL,ioos:station:DISL:MHPA:1,2009-06-03T07:00:00Z,30.6671,-87.9365,8.5,1.53,109.9,-9999.0,'1111122,1111122,1111122' 
DISL,ioos:station:DISL:MHPA:1,2009-06-03T07:30:00Z,30.6671,-87.9365,8.5,0.89,103.8,-9999.0,'1111122,1111122,1111122' 
DISL,ioos:station:DISL:MHPA:1,2009-06-03T08:00:00Z,30.6671,-87.9365,8.5,1.61,89.0,-9999.0,'1111122,1111122,1111122' 
DISL,ioos:station:DISL:MHPA:1,2009-06-03T08:30:00Z,30.6671,-87.9365,8.5,1.85,89.2,-9999.0,'1111122,1111122,1111122' 
DISL,ioos:station:DISL:MHPA:1,2009-06-03T09:00:00Z,30.6671,-87.9365,8.5,1.22,63.12,-9999.0,'1111122,1111122,1111122' 
DISL,ioos:station:DISL:MHPA:1,2009-06-03T09:30:00Z,30.6671,-87.9365,8.5,1.83,48.8,-9999.0,'1111122,1111122,1111122' 
DISL,ioos:station:DISL:MHPA:1,2009-06-03T10:00:00Z,30.6671,-87.9365,8.5,0.36,80.4,-9999.0,'1111122,1111122,1111122' 
DISL,ioos:station:DISL:MHPA:1,2009-06-03T10:30:00Z,30.6671,-87.9365,8.5,1.23,95.6,-9999.0,'1111122,1111122,1111122' 
DISL,ioos:station:DISL:MHPA:1,2009-06-03T11:00:00Z,30.6671,-87.9365,8.5,1.06,11.72,-9999.0,'1111122,1111122,1111122' 
DISL,ioos:station:DISL:MHPA:1,2009-06-03T11:30:00Z,30.6671,-87.9365,8.5,1.55,12.01,-9999.0,'1111122,1111122,1111122' 
DISL,ioos:station:DISL:MHPA:1,2009-06-03T12:00:00Z,30.6671,-87.9365,8.5,1.79,344.7,-9999.0,'1111122,1111122,1111122' 
DISL,ioos:station:DISL:MHPA:1,2009-06-03T12:30:00Z,30.6671,-87.9365,8.5,1.29,357.9,-9999.0,'1111122,1111122,1111122' 
DISL,ioos:station:DISL:MHPA:1,2009-06-03T13:00:00Z,30.6671,-87.9365,8.5,2.5,169.5,-9999.0,'1111122,1111122,1111122' 
DISL,ioos:station:DISL:MHPA:1,2009-06-03T13:30:00Z,30.6671,-87.9365,8.5,1.31,137.1,-9999.0,'1111122,1111122,1111122' 
DISL,ioos:station:DISL:MHPA:1,2009-06-03T14:00:00Z,30.6671,-87.9365,8.5,1.61,39.29,-9999.0,'1111122,1111122,1111122' 
DISL,ioos:station:DISL:MHPA:1,2009-06-03T14:30:00Z,30.6671,-87.9365,8.5,2.58,21.53,-9999.0,'1111122,1111122,1111122' 
DISL,ioos:station:DISL:MHPA:1,2009-06-03T15:00:00Z,30.6671,-87.9365,8.5,2.77,31.98,-9999.0,'1111122,1111122,1111122' 
DISL,ioos:station:DISL:MHPA:1,2009-06-03T15:30:00Z,30.6671,-87.9365,8.5,2.13,63.23,-9999.0,'1111122,1111122,1111122' 
DISL,ioos:station:DISL:MHPA:1,2009-06-03T16:00:00Z,30.6671,-87.9365,8.5,2.77,96.6,-9999.0,'1111122,1111122,1111122' 
DISL,ioos:station:DISL:MHPA:1,2009-06-03T16:30:00Z,30.6671,-87.9365,8.5,2.38,100.8,-9999.0,'1111122,1111122,1111122' 
DISL,ioos:station:DISL:MHPA:1,2009-06-03T17:00:00Z,30.6671,-87.9365,8.5,2.83,106.8,-9999.0,'1111122,1111122,1111122' 
DISL,ioos:station:DISL:MHPA:1,2009-06-03T17:30:00Z,30.6671,-87.9365,8.5,2.95,102.4,-9999.0,'1111122,1111122,1111122' 
DISL,ioos:station:DISL:MHPA:1,2009-06-03T18:00:00Z,30.6671,-87.9365,8.5,1.91,89.4,-9999.0,'1111122,1111122,1111122' 
DISL,ioos:station:DISL:MHPA:1,2009-06-03T18:30:00Z,30.6671,-87.9365,8.5,1.94,119.4,-9999.0,'1111122,1111122,1111122' 
DISL,ioos:station:DISL:MHPA:1,2009-06-03T19:00:00Z,30.6671,-87.9365,8.5,1.24,165.0,-9999.0,'1111122,1111122,1111122' 
DISL,ioos:station:DISL:MHPA:1,2009-06-03T19:30:00Z,30.6671,-87.9365,8.5,1.2,211.4,-9999.0,'1111122,1111122,1111122' 
DISL,ioos:station:DISL:MHPA:1,2009-06-03T20:00:00Z,30.6671,-87.9365,8.5,1.54,231.3,-9999.0,'1111122,1111122,1111122' 
DISL,ioos:station:DISL:MHPA:1,2009-06-03T20:30:00Z,30.6671,-87.9365,8.5,1.36,229.2,-9999.0,'1111122,1111122,1111122' 
DISL,ioos:station:DISL:MHPA:1,2009-06-03T21:00:00Z,30.6671,-87.9365,8.5,1.41,246.8,-9999.0,'1111122,1111122,1111122' 
DISL,ioos:station:DISL:MHPA:1,2009-06-03T21:30:00Z,30.6671,-87.9365,8.5,1.93,252.8,-9999.0,'1111122,1111122,1111122' 
DISL,ioos:station:DISL:MHPA:1,2009-06-03T22:00:00Z,30.6671,-87.9365,8.5,1.29,270.2,-9999.0,'1111122,1111122,1111122' 
DISL,ioos:station:DISL:MHPA:1,2009-06-03T22:30:00Z,30.6671,-87.9365,8.5,2.84,118.6,-9999.0,'1111122,1111122,1111122' 
DISL,ioos:station:DISL:MHPA:1,2009-06-03T23:00:00Z,30.6671,-87.9365,8.5,2.99,131.8,-9999.0,'1111122,1111122,1111122' 
DISL,ioos:station:DISL:MHPA:1,2009-06-03T23:30:00Z,30.6671,-87.9365,8.5,2.84,131.2,-9999.0,'1111122,1111122,1111122' 
DISL,ioos:station:DISL:MHPA:1,2009-06-04T00:00:00Z,30.6671,-87.9365,8.5,2.05,123.1,-9999.0,'1111122,1111122,1111122' 
DISL,ioos:station:DISL:MHPA:1,2009-06-04T00:30:00Z,30.6671,-87.9365,8.5,1.37,104.6,-9999.0,'1111122,1111122,1111122' 
DISL,ioos:station:DISL:MHPA:1,2009-06-04T01:00:00Z,30.6671,-87.9365,8.5,0.89,96.0,-9999.0,'1111122,1111122,1111122' 
DISL,ioos:station:DISL:MHPA:1,2009-06-04T01:30:00Z,30.6671,-87.9365,8.5,2.01,135.4,-9999.0,'1111122,1111122,1111122' 
DISL,ioos:station:DISL:MHPA:1,2009-06-04T02:00:00Z,30.6671,-87.9365,8.5,2.29,126.8,-9999.0,'1111122,1111122,1111122' 
DISL,ioos:station:DISL:MHPA:1,2009-06-04T02:30:00Z,30.6671,-87.9365,8.5,1.6,111.7,-9999.0,'1111122,1111122,1111122' 
DISL,ioos:station:DISL:MHPA:1,2009-06-04T03:00:00Z,30.6671,-87.9365,8.5,0.8,70.9,-9999.0,'1111122,1111122,1111122' 
DISL,ioos:station:DISL:MHPA:1,2009-06-04T03:30:00Z,30.6671,-87.9365,8.5,0.97,27.8,-9999.0,'1111122,1111122,1111122' 
DISL,ioos:station:DISL:MHPA:1,2009-06-04T04:00:00Z,30.6671,-87.9365,8.5,1.76,37.19,-9999.0,'1111122,1111122,1111122' 
DISL,ioos:station:DISL:MHPA:1,2009-06-04T04:30:00Z,30.6671,-87.9365,8.5,1.34,39.46,-9999.0,'1111122,1111122,1111122' 
DISL,ioos:station:DISL:MHPA:1,2009-06-04T05:00:00Z,30.6671,-87.9365,8.5,1.58,51.28,-9999.0,'1111122,1111122,1111122' 
DISL,ioos:station:DISL:MHPA:1,2009-06-04T05:30:00Z,30.6671,-87.9365,8.5,1.38,60.78,-9999.0,'1111122,1111122,1111122' 
DISL,ioos:station:DISL:MHPA:1,2009-06-04T06:00:00Z,30.6671,-87.9365,8.5,1.35,61.42,-9999.0,'1111122,1111122,1111122' 
DISL,ioos:station:DISL:MHPA:1,2009-06-04T06:30:00Z,30.6671,-87.9365,8.5,2.88,116.5,-9999.0,'1111122,1111122,1111122' 
DISL,ioos:station:DISL:MHPA:1,2009-06-04T07:00:00Z,30.6671,-87.9365,8.5,1.32,119.6,-9999.0,'1111122,1111122,1111122' 
DISL,ioos:station:DISL:MHPA:1,2009-06-04T07:30:00Z,30.6671,-87.9365,8.5,1.13,51.72,-9999.0,'1111122,1111122,1111122' 
DISL,ioos:station:DISL:MHPA:1,2009-06-04T08:00:00Z,30.6671,-87.9365,8.5,0.54,104.5,-9999.0,'1111122,1111122,1111122' 
DISL,ioos:station:DISL:MHPA:1,2009-06-04T08:30:00Z,30.6671,-87.9365,8.5,0.7,327.9,-9999.0,'1111122,1111122,1111122' 
DISL,ioos:station:DISL:MHPA:1,2009-06-04T09:00:00Z,30.6671,-87.9365,8.5,1.88,308.9,-9999.0,'1111122,1111122,1111122' 
DISL,ioos:station:DISL:MHPA:1,2009-06-04T09:30:00Z,30.6671,-87.9365,8.5,2.93,268.6,-9999.0,'1111122,1111122,1111122' 
DISL,ioos:station:DISL:MHPA:1,2009-06-04T10:00:00Z,30.6671,-87.9365,8.5,2.3,278.5,-9999.0,'1111122,1111122,1111122' 
DISL,ioos:station:DISL:MHPA:1,2009-06-04T10:30:00Z,30.6671,-87.9365,8.5,2.84,301.3,-9999.0,'1111122,1111122,1111122' 
DISL,ioos:station:DISL:MHPA:1,2009-06-04T11:00:00Z,30.6671,-87.9365,8.5,5.42,317.2,-9999.0,'1111122,1111122,1111122' 
DISL,ioos:station:DISL:MHPA:1,2009-06-04T11:30:00Z,30.6671,-87.9365,8.5,2.39,10.47,-9999.0,'1111122,1111122,1111122' 
DISL,ioos:station:DISL:MHPA:1,2009-06-04T12:00:00Z,30.6671,-87.9365,8.5,0.45,353.7,-9999.0,'1111122,1111122,1111122' 
DISL,ioos:station:DISL:MHPA:1,2009-06-04T12:30:00Z,30.6671,-87.9365,8.5,1.39,281.6,-9999.0,'1111122,1111122,1111122' 
DISL,ioos:station:DISL:MHPA:1,2009-06-04T13:00:00Z,30.6671,-87.9365,8.5,1.76,257.4,-9999.0,'1111122,1111122,1111122' 
DISL,ioos:station:DISL:MHPA:1,2009-06-04T13:30:00Z,30.6671,-87.9365,8.5,1.3,232.5,-9999.0,'1111122,1111122,1111122' 
DISL,ioos:station:DISL:MHPA:1,2009-06-04T14:00:00Z,30.6671,-87.9365,8.5,0.74,237.9,-9999.0,'1111122,1111122,1111122' 
DISL,ioos:station:DISL:MHPA:1,2009-06-04T14:30:00Z,30.6671,-87.9365,8.5,0.73,226.4,-9999.0,'1111122,1111122,1111122' 
DISL,ioos:station:DISL:MHPA:1,2009-06-04T15:00:00Z,30.6671,-87.9365,8.5,1.2,192.0,-9999.0,'1111122,1111122,1111122' 
DISL,ioos:station:DISL:MHPA:1,2009-06-04T15:30:00Z,30.6671,-87.9365,8.5,1.86,187.0,-9999.0,'1111122,1111122,1111122' 
DISL,ioos:station:DISL:MHPA:1,2009-06-04T16:00:00Z,30.6671,-87.9365,8.5,3.34,188.8,-9999.0,'1111122,1111122,1111122' 
DISL,ioos:station:DISL:MHPA:1,2009-06-04T16:30:00Z,30.6671,-87.9365,8.5,4.2,184.1,-9999.0,'1111122,1111122,1111122' 
DISL,ioos:station:DISL:MHPA:1,2009-06-04T17:00:00Z,30.6671,-87.9365,8.5,4.01,181.6,-9999.0,'1111122,1111122,1111122' 
DISL,ioos:station:DISL:MHPA:1,2009-06-04T17:30:00Z,30.6671,-87.9365,8.5,7.16,187.3,-9999.0,'1111122,1111122,1111122' 
DISL,ioos:station:DISL:MHPA:1,2009-06-04T18:00:00Z,30.6671,-87.9365,8.5,2.52,333.3,-9999.0,'1111122,1111122,1111122' 
DISL,ioos:station:DISL:MHPA:1,2009-06-04T18:30:00Z,30.6671,-87.9365,8.5,0.79,356.5,-9999.0,'1111122,1111122,1111122' 
DISL,ioos:station:DISL:MHPA:1,2009-06-04T19:00:00Z,30.6671,-87.9365,8.5,5.91,209.7,-9999.0,'1111122,1111122,1111122' 
DISL,ioos:station:DISL:MHPA:1,2009-06-04T19:30:00Z,30.6671,-87.9365,8.5,4.87,206.0,-9999.0,'1111122,1111122,1111122' 
DISL,ioos:station:DISL:MHPA:1,2009-06-04T20:00:00Z,30.6671,-87.9365,8.5,4.11,203.5,-9999.0,'1111122,1111122,1111122' 
DISL,ioos:station:DISL:MHPA:1,2009-06-04T20:30:00Z,30.6671,-87.9365,8.5,4.24,194.5,-9999.0,'1111122,1111122,1111122' 
DISL,ioos:station:DISL:MHPA:1,2009-06-04T21:00:00Z,30.6671,-87.9365,8.5,4.91,182.6,-9999.0,'1111122,1111122,1111122' 
DISL,ioos:station:DISL:MHPA:1,2009-06-04T21:30:00Z,30.6671,-87.9365,8.5,7.4,186.6,-9999.0,'1111122,1111122,1111122' 
DISL,ioos:station:DISL:MHPA:1,2009-06-04T22:00:00Z,30.6671,-87.9365,8.5,8.08,207.0,-9999.0,'1111122,1111122,1111122' 
DISL,ioos:station:DISL:MHPA:1,2009-06-04T22:30:00Z,30.6671,-87.9365,8.5,2.37,280.6,-9999.0,'1111122,1111122,1111122' 
DISL,ioos:station:DISL:MHPA:1,2009-06-04T23:00:00Z,30.6671,-87.9365,8.5,1.14,191.8,-9999.0,'1111122,1111122,1111122' 
DISL,ioos:station:DISL:MHPA:1,2009-06-04T23:30:00Z,30.6671,-87.9365,8.5,1.69,173.2,-9999.0,'1111122,1111122,1111122' 
DISL,ioos:station:DISL:MHPA:1,2009-06-05T00:00:00Z,30.6671,-87.9365,8.5,0.13,64.66,-9999.0,'1111122,1111122,1111122' 
DISL,ioos:station:DISL:MHPA:1,2009-06-05T00:30:00Z,30.6671,-87.9365,8.5,0.41,92.6,-9999.0,'1111122,1111122,1111122' 
DISL,ioos:station:DISL:MHPA:1,2009-06-05T01:00:00Z,30.6671,-87.9365,8.5,0.56,90.2,-9999.0,'1111122,1111122,1111122' 
DISL,ioos:station:DISL:MHPA:1,2009-06-05T01:30:00Z,30.6671,-87.9365,8.5,2.8,241.3,-9999.0,'1111122,1111122,1111122' 
DISL,ioos:station:DISL:MHPA:1,2009-06-05T02:00:00Z,30.6671,-87.9365,8.5,2.97,280.8,-9999.0,'1111122,1111122,1111122' 
DISL,ioos:station:DISL:MHPA:1,2009-06-05T02:30:00Z,30.6671,-87.9365,8.5,1.34,78.9,-9999.0,'1111122,1111122,1111122' 
DISL,ioos:station:DISL:MHPA:1,2009-06-05T03:00:00Z,30.6671,-87.9365,8.5,0.81,86.8,-9999.0,'1111122,1111122,1111122' 
DISL,ioos:station:DISL:MHPA:1,2009-06-05T03:30:00Z,30.6671,-87.9365,8.5,1.99,119.5,-9999.0,'1111122,1111122,1111122' 
DISL,ioos:station:DISL:MHPA:1,2009-06-05T04:00:00Z,30.6671,-87.9365,8.5,1.06,3.38,-9999.0,'1111122,1111122,1111122' 
DISL,ioos:station:DISL:MHPA:1,2009-06-05T04:30:00Z,30.6671,-87.9365,8.5,1.55,353.4,-9999.0,'1111122,1111122,1111122' 